Weather History for Santiago, Dominican Republic

Change the Weather History Date:

Thursday, December 27, 2012

  Actual Average Record
Temperature  
Mean Temperature 75 °F -  
Max Temperature 86 °F 84 °F 89 °F (1997)
Min Temperature 64 °F 65 °F 57 °F (2001)
Cooling Degree Days 10    
Growing Degree Days 25 (Base 50)    
Moisture  
Dew Point 71 °F    
Average Humidity 81    
Maximum Humidity 100    
Minimum Humidity 49    
Precipitation  
Precipitation 0.00 in 0.07 in - ()
Sea Level Pressure  
Sea Level Pressure 29.98 in    
Wind  
Wind Speed 5 mph ()    
Max Wind Speed 9 mph    
Max Gust Speed -    
Visibility 6.1 miles    
Events      
Averages and records for this station are not official NWS values.
T = Trace of Precipitation, MM = Missing Value Source: Averaged Metar Reports

Daily Weather History Graph

Daily Weather History Graph

Search for Another Location

Airport:

Trip Planner

Search our weather history database for the weather conditions in past years. The results will help you decide how hot, cold, wet, or windy it might be!

Date:

Astronomy

Dec. 27, 2012 Rise Set
Actual Time 7:14 AM AST 6:12 PM AST
Civil Twilight 6:50 AM AST 6:36 PM AST
Nautical Twilight 6:23 AM AST 7:04 PM AST
Astronomical Twilight 5:56 AM AST 7:31 PM AST
Moon 5:48 PM AST (12/27) 6:26 AM AST (12/27)
Length of Visible Light 11h 46m
Length of Day
10h 58m
Waxing Gibbous, 99% of the Moon is Illuminated
Dec 27
Waxing Gibbous
Dec 28
Full
Jan 4
Last Quarter
Jan 11
New
Jan 18
First Quarter

Hourly Weather History & Observations

Time (AST) Temp. Heat Index Dew Point Humidity Pressure Visibility Wind Dir Wind Speed Gust Speed Precip Events Conditions
12:00 AM 73.4 °F - 71.6 °F 94% 30.01 in 6.2 mi SE 5.8 mph - N/A   Mostly Cloudy
1:00 AM 73.4 °F - 71.6 °F 94% 29.98 in 6.2 mi SE 6.9 mph - N/A   Mostly Cloudy
2:00 AM 73.4 °F - 71.6 °F 94% 29.98 in 6.2 mi ESE 6.9 mph - N/A   Mostly Cloudy
3:00 AM 73.4 °F - 71.6 °F 94% 29.98 in 6.2 mi ESE 6.9 mph - N/A   Mostly Cloudy
4:00 AM 73.4 °F - 71.6 °F 94% 29.95 in 6.2 mi Calm Calm - N/A   Mostly Cloudy
5:00 AM 71.6 °F - 71.6 °F 100% 29.95 in 6.2 mi East 4.6 mph - N/A   Mostly Cloudy
6:00 AM 71.6 °F - 71.6 °F 100% 29.98 in 6.2 mi East 4.6 mph - N/A   Scattered Clouds
7:00 AM 71.6 °F - 71.6 °F 100% 29.98 in 6.2 mi Calm Calm - N/A   Partly Cloudy
8:00 AM 70 °F - 69 °F 97% 30.02 in 5 mi South 4.5 mph - -   Haze
8:00 AM 69.8 °F - 69.8 °F 100% 30.01 in 6.2 mi South 4.6 mph - N/A   Partly Cloudy
9:00 AM 75.2 °F - 71.6 °F 89% 30.04 in 6.2 mi Calm Calm - N/A   Partly Cloudy
10:00 AM 77.0 °F - 73.4 °F 89% 30.04 in 6.2 mi ESE 6.9 mph - N/A   Partly Cloudy
11:00 AM 80 °F - 71 °F 69% 30.06 in 6 mi ESE 8.9 mph - -   Haze
11:00 AM 80.6 °F 84.6 °F 71.6 °F 74% 30.04 in 6.2 mi ESE 9.2 mph - N/A   Partly Cloudy
12:00 PM 82.4 °F 87.2 °F 71.6 °F 70% 30.01 in 6.2 mi ESE 9.2 mph - N/A   Partly Cloudy
1:00 PM 84.2 °F 88.4 °F 69.8 °F 62% 29.98 in 6.2 mi SE 9.2 mph - N/A   Partly Cloudy
2:00 PM 86.0 °F 90.4 °F 69.8 °F 58% 29.95 in 6.2 mi SE 8.1 mph - N/A   Partly Cloudy
3:00 PM 86.0 °F 89.4 °F 68.0 °F 55% 29.92 in 6.2 mi ESE 9.2 mph - N/A   Partly Cloudy
4:00 PM 86.0 °F 89.4 °F 68.0 °F 55% 29.92 in 6.2 mi SE 9.2 mph - N/A   Partly Cloudy
5:00 PM 85 °F - 69 °F 49% 29.94 in 6 mi ESE 8.9 mph - -   Haze
5:00 PM 86.0 °F 89.4 °F 68.0 °F 55% 29.92 in 6.2 mi ESE 9.2 mph - N/A   Partly Cloudy
6:00 PM 82.4 °F 85.4 °F 68.0 °F 62% 29.95 in 6.2 mi ESE 6.9 mph - N/A   Partly Cloudy
7:00 PM 78.8 °F - 69.8 °F 74% 29.95 in 6.2 mi East 4.6 mph - N/A   Partly Cloudy
8:00 PM 75.2 °F - 69.8 °F 83% 29.98 in 6.2 mi South 4.6 mph - N/A   Scattered Clouds
9:00 PM 75.2 °F - 73.4 °F 94% 29.98 in 6.2 mi SSE 5.8 mph - N/A   Scattered Clouds
10:00 PM 75.2 °F - 73.4 °F 94% 30.01 in 6.2 mi SSE 5.8 mph - N/A   Scattered Clouds
11:00 PM 73.4 °F - 71.6 °F 94% 30.01 in 6.2 mi ENE 4.6 mph - N/A   Scattered Clouds